Regional Weather Roundup
Issued by NWS

Home | Current Version | Previous Version | Text Only | Print | Product List | Glossary On
Versions: 1 2 3 4 5 6 7 8 9 10 11 12 13 14 15 16 17 18 19 20 21 22 23 24 25 26 27 28 29 30 31 32 33 34 35 36 37 38 39 40 41 42 43 44 45 46 47 48 49 50
193
ASUS44 KLIX 301805
RWRLA
LOUISIANA WEATHER ROUNDUP
NATIONAL WEATHER SERVICE NEW ORLEANS LA
1200 PM CST FRI JAN 30 2015

NOTE: "FAIR" INDICATES FEW OR NO CLOUDS BELOW 12,000 FEET WITH NO
      SIGNIFICANT WEATHER AND/OR OBSTRUCTIONS TO VISIBILITY.
      SKY/WX - SKY CONDITION AND SIGNIFICANT WEATHER.
      TMP - AIR TEMPERATURE.    DP   - DEWPOINT TEMPERATURE.
      RH  - RELATIVE HUMIDITY.  PRES - PRESSURE.
      HX  - HEAT INDEX.         WCI  - WIND CHILL INDEX.

*  THESE STATIONS ARE NOT NWS OR FAA STATIONS AND ARE NOT UNDER
   NWS QUALITY CONTROL.

LAZ040-048-061>063-065-066-069-301900-
SOUTHEAST LOUISIANA

CITY           SKY/WX    TMP DP  RH WIND       PRES   REMARKS
N.O. AUDUBON     N/A     55  41  57 MISG        N/A
6HR MIN TEMP:  49; 6HR MAX TEMP:  56;

N.O. INTL ARPT PTSUNNY   53  38  56 NE15      30.38F
6HR MIN TEMP:  47; 6HR MAX TEMP:  54;

N.O. LAKEFRONT PTSUNNY   56  37  49 N10       30.38F
6HR MIN TEMP:  50; 6HR MAX TEMP:  56;

N.O. DOWNTOWN* NOT AVBL
SLIDELL        PTSUNNY   55  33  43 N10       30.37F
6HR MIN TEMP:  46; 6HR MAX TEMP:  56;

BATON ROUGE    PTSUNNY   55  32  41 N9        30.39F
6HR MIN TEMP:  43; 6HR MAX TEMP:  55;

BOOTHVILLE     MOSUNNY   53  43  68 N10G21    30.37F
6HR MIN TEMP:  52; 6HR MAX TEMP:  55;

BELLE CHASSE   CLOUDY    56  37  49 NE10      30.36F
6HR MIN TEMP:  50; 6HR MAX TEMP:  56;

BOGALUSA*        N/A     55  32  42 N12       30.41F
6HR MIN TEMP:  44; 6HR MAX TEMP:  55;

GALLIANO*      CLEAR     57  42  57 N8        30.37F
6HR MIN TEMP:  51; 6HR MAX TEMP:  57;

NEW ROADS*     FAIR      54  32  43 N7        30.41F
6HR MIN TEMP:  42; 6HR MAX TEMP:  54;

GONZALES*      FAIR      54  35  49 N6        30.38F
6HR MIN TEMP:  46; 6HR MAX TEMP:  54;

HAMMOND*       PTSUNNY   55  32  41 N8        30.40F
HOUMA*         SUNNY     55  39  54 N17       30.37F
PORT FOURCHON* CLEAR     55  45  67 NE17      30.38F

$$

LAZ041-044-053-054-301900-
SOUTHWEST LOUISIANA

CITY           SKY/WX    TMP DP  RH WIND       PRES   REMARKS
LAKE CHARLES   MOSUNNY   53  35  50 NE13      30.41F
6HR MIN TEMP:  45; 6HR MAX TEMP:  53;

LAFAYETTE      PTSUNNY   53  36  52 NE10      30.39F
6HR MIN TEMP:  43; 6HR MAX TEMP:  53;

PATTERSON      PTSUNNY   55  37  50 NE16      30.38F
6HR MIN TEMP:  48; 6HR MAX TEMP:  55;

SALT POINT       N/A     56  37  49 E7        30.36F
6HR MIN TEMP:  50; 6HR MAX TEMP:  56;

NEW IBERIA     PTSUNNY   55  35  47 NE14      30.39F
6HR MIN TEMP:  45; 6HR MAX TEMP:  55;

CHENAULT AIRPK MOSUNNY   54  36  50 NE8       30.42F

$$

LAZ027-028-301900-
CENTRAL LOUISIANA

CITY           SKY/WX    TMP DP  RH WIND       PRES   REMARKS
FORT POLK      PTSUNNY   49  33  53 NE6       30.42F
6HR MIN TEMP:  41; 6HR MAX TEMP:  49;

ALEXANDRIA INT PTSUNNY   53  32  44 NE8       30.43F
6HR MIN TEMP:  42; 6HR MAX TEMP:  53;

ALEXANDRIA     PTSUNNY   51  32  48 E7        30.43F
6HR MIN TEMP:  41; 6HR MAX TEMP:  51;


$$

LAZ001-002-301900-
NORTHWEST LOUISIANA

CITY           SKY/WX    TMP DP  RH WIND       PRES   REMARKS
SHREVEPORT     PTSUNNY   51  30  44 VRB5      30.47F
6HR MIN TEMP:  40; 6HR MAX TEMP:  51;

BARKSDALE AFB  SUNNY     51  30  44 E8        30.47F
6HR MIN TEMP:  37; 6HR MAX TEMP:  51;

DTN SHREVEPORT MOSUNNY   50  30  46 NE5       30.48F
6HR MIN TEMP:  38; 6HR MAX TEMP:  50;


$$

LAZ014-016-301900-
NORTHEAST LOUISIANA

CITY           SKY/WX    TMP DP  RH WIND       PRES   REMARKS
MONROE         MOSUNNY   50  33  52 NE14      30.49F
6HR MIN TEMP:  37; 6HR MAX TEMP:  50;

TALLULAH       SUNNY     52  32  46 VRB6      30.46F
6HR MIN TEMP:  37; 6HR MAX TEMP:  52;


$$




USA.gov is the U.S. government's official web portal to all federal, state and local government web resources and services.